GW7354 Weather Reports


time (UTC)temp
C
wind
direction
speed
KPH
gust
KPH
rain 1hr
cm
rain 24hr
cm
rain mn
cm
humidity
%
barometer
mb
20260504174502 20 205 9.7 12.9 0.00 0.00 0.00 37 1008.5
20260504173959 20 31 1.6 1.6 0.00 0.00 0.00 39 1008.5
20260504173456 20 183 3.2 4.8 0.00 0.00 0.00 38 1008.6
20260504172953 19 217 4.8 8.0 0.00 0.00 0.00 40 1008.7
20260504172449 20 208 8.0 9.7 0.00 0.00 0.00 40 1008.8
20260504171946 20 141 3.2 3.2 0.00 0.00 0.00 39 1008.6
20260504171443 19 4 3.2 3.2 0.00 0.00 0.00 38 1008.9
20260504170939 19 232 6.4 9.7 0.00 0.00 0.00 38 1009.0
20260504170436 19 216 6.4 11.3 0.00 0.00 0.00 40 1008.9
20260504160355 18 222 6.4 8.0 0.00 0.00 0.00 41 1009.7
20260504150820 18 25 1.6 1.6 0.00 0.00 0.00 39 1010.3
20260504150316 18 243 9.7 12.9 0.00 0.00 0.00 39 1010.2
20260504141246 17 258 4.8 4.8 0.00 0.00 0.00 49 1010.7
20260504140743 16 10 0.0 0.0 0.00 0.00 0.00 49 1010.7
20260504140238 16 105 3.2 4.8 0.00 0.00 0.00 55 1010.4
20260504130707 14 22 3.2 3.2 0.00 0.00 0.00 55 1011.3
20260504130203 14 216 8.0 9.7 0.00 0.00 0.00 54 1011.2
20260504120127 10 54 0.0 0.0 0.00 0.00 0.00 66 1011.2
20260504110554 8 221 8.0 12.9 0.00 0.00 0.00 65 1011.5
20260504100516 7 71 1.6 1.6 0.00 0.00 0.00 69 1011.6
20260504081910 8 68 0.0 0.0 0.00 0.00 0.00 72 1011.0
20260504081406 7 172 4.8 4.8 0.00 0.00 0.00 67 1011.1
20260504080902 7 61 1.6 1.6 0.00 0.00 0.00 69 1011.1
20260504080359 7 59 1.6 1.6 0.00 0.00 0.00 68 1011.3
20260504070326 7 56 0.0 0.0 0.00 0.00 0.00 67 1011.0
20260504060247 8 74 1.6 1.6 0.00 0.00 0.00 60 1011.0
20260504050715 9 123 3.2 3.2 0.00 0.00 0.00 57 1010.7
20260504050212 9 46 0.0 1.6 0.00 0.00 0.00 56 1010.7
20260504045709 9 103 1.6 1.6 0.00 0.00 0.00 56 1010.6
20260504045209 9 90 1.6 3.2 0.00 0.00 0.00 53 1010.6
20260504044708 9 43 0.0 0.0 0.00 0.00 0.00 57 1010.6
20260504044205 9 66 1.6 3.2 0.00 0.00 0.00 54 1010.7
20260504043701 10 49 0.0 0.0 0.00 0.00 0.00 58 1010.7
20260504043158 10 49 0.0 1.6 0.00 0.00 0.00 56 1010.6
20260504042656 10 63 0.0 1.6 0.00 0.00 0.00 56 1010.6
20260504042152 9 200 3.2 3.2 0.00 0.00 0.00 55 1010.5
20260504041648 9 51 0.0 0.0 0.00 0.00 0.00 65 1010.4
20260504041144 9 52 0.0 0.0 0.00 0.00 0.00 57 1010.4
20260504040641 8 62 0.0 0.0 0.00 0.00 0.00 64 1010.2
20260504040138 8 49 0.0 0.0 0.00 0.00 0.00 70 1010.3
20260504035635 8 49 0.0 0.0 0.00 0.00 0.00 67 1010.2
20260504035132 8 64 0.0 0.0 0.00 0.00 0.00 65 1010.1
20260504034630 8 67 0.0 0.0 0.00 0.00 0.00 65 1010.1
20260504034126 8 66 0.0 0.0 0.00 0.00 0.00 66 1010.1
20260504033624 8 66 0.0 0.0 0.00 0.00 0.00 67 1010.1
20260504033121 7 66 0.0 0.0 0.00 0.00 0.00 68 1010.1
20260504032618 8 66 0.0 0.0 0.00 0.00 0.00 72 1010.1
20260504032115 8 66 0.0 0.0 0.00 0.00 0.00 72 1010.2
20260504031612 8 55 0.0 0.0 0.00 0.00 0.00 71 1010.2
20260504031108 8 55 0.0 0.0 0.00 0.00 0.00 71 1010.0
20260504030605 7 55 0.0 0.0 0.00 0.00 0.00 69 1010.0
20260504025559 8 55 0.0 0.0 0.00 0.00 0.00 71 1010.1
20260504025055 8 55 0.0 0.0 0.00 0.00 0.00 66 1010.2
20260504024553 8 55 0.0 0.0 0.00 0.00 0.00 67 1010.0
20260504024049 8 55 0.0 0.0 0.00 0.00 0.00 66 1010.0
20260504023546 8 55 0.0 0.0 0.00 0.00 0.00 63 1010.0
20260504023042 8 55 0.0 0.0 0.00 0.00 0.00 68 1010.1
20260504022537 8 55 0.0 0.0 0.00 0.00 0.00 67 1010.1
20260504022034 8 55 0.0 0.0 0.00 0.00 0.00 65 1010.0
20260504021532 8 55 0.0 0.0 0.00 0.00 0.00 64 1010.1
20260504021029 8 55 0.0 0.0 0.00 0.00 0.00 64 1010.1
20260504020526 8 55 0.0 0.0 0.00 0.00 0.00 64 1010.0
20260504020022 8 55 0.0 0.0 0.00 0.00 0.00 64 1010.0
20260504015518 8 55 0.0 0.0 0.00 0.00 0.00 62 1009.9
20260504015015 8 55 0.0 0.0 0.00 0.00 0.00 63 1010.2
20260504014511 8 55 0.0 0.0 0.00 0.00 0.00 62 1010.0
20260504014008 8 55 0.0 0.0 0.00 0.00 0.00 59 1010.1
20260504013506 8 55 0.0 0.0 0.00 0.00 0.00 58 1010.0
20260504013002 8 55 0.0 0.0 0.00 0.00 0.00 60 1009.8
20260504012500 8 55 0.0 0.0 0.00 0.00 0.00 59 1009.8
20260504011958 8 55 0.0 0.0 0.00 0.00 0.00 57 1009.7
20260504011454 9 55 0.0 0.0 0.00 0.00 0.00 62 1009.8
20260504010950 9 55 0.0 0.0 0.00 0.00 0.00 53 1009.7
20260504010446 9 55 0.0 0.0 0.00 0.00 0.00 58 1009.6
20260504005942 10 55 0.0 0.0 0.00 0.00 0.00 54 1009.4
20260504005439 10 55 0.0 0.0 0.00 0.00 0.00 53 1009.5
20260504004937 10 55 0.0 0.0 0.00 0.00 0.00 54 1009.3
20260504004434 10 55 0.0 0.0 0.00 0.00 0.00 50 1009.5
20260504003931 10 55 0.0 0.0 0.00 0.00 0.00 50 1009.2
20260504003427 11 55 0.0 0.0 0.00 0.00 0.00 50 1009.1
20260504002924 11 55 0.0 0.0 0.00 0.00 0.00 48 1009.3
20260504002421 11 55 0.0 0.0 0.00 0.00 0.00 49 1009.0
20260504001918 11 54 0.0 0.0 0.00 0.00 0.00 48 1008.9
20260504001416 12 54 0.0 0.0 0.00 0.00 0.00 45 1008.7
20260504000912 12 55 0.0 0.0 0.00 0.00 0.00 42 1008.8
20260504000409 12 54 0.0 0.0 0.00 0.00 0.00 46 1008.7
20260503235907 12 55 0.0 1.6 0.00 0.00 0.00 44 1008.7
20260503235404 12 63 1.6 1.6 0.00 0.00 0.00 41 1008.6
20260503234902 12 71 1.6 1.6 0.00 0.00 0.00 41 1008.6
20260503234359 12 61 0.0 0.0 0.00 0.00 0.00 41 1008.4
20260503233857 13 105 1.6 3.2 0.00 0.00 0.00 41 1008.5
20260503233353 13 37 1.6 1.6 0.00 0.00 0.00 39 1008.3
20260503232849 13 64 0.0 0.0 0.00 0.00 0.00 39 1008.1
20260503232347 13 64 0.0 0.0 0.00 0.00 0.00 38 1008.2
20260503231845 13 64 0.0 0.0 0.00 0.00 0.00 37 1008.3
20260503231341 13 64 0.0 0.0 0.00 0.00 0.00 38 1008.2
20260503230837 13 62 0.0 0.0 0.00 0.00 0.00 38 1008.3
20260503230334 13 72 1.6 1.6 0.00 0.00 0.00 38 1008.3
20260503225833 13 57 0.0 0.0 0.00 0.00 0.00 37 1008.1
20260503225328 13 135 3.2 3.2 0.00 0.00 0.00 34 1008.0
20260503224824 13 1 1.6 1.6 0.00 0.00 0.00 37 1008.1
20260503224322 13 39 0.0 0.0 0.00 0.00 0.00 39 1008.2
20260503223820 13 26 3.2 3.2 0.00 0.00 0.00 34 1008.1
20260503223317 14 354 1.6 1.6 0.00 0.00 0.00 34 1008.1
20260503222812 14 28 3.2 3.2 0.00 0.00 0.00 33 1008.0
20260503222311 14 143 3.2 3.2 0.00 0.00 0.00 35 1007.9
20260503221809 14 66 0.0 0.0 0.00 0.00 0.00 34 1007.9
20260503221307 14 101 3.2 3.2 0.00 0.00 0.00 33 1008.0
20260503220803 14 46 1.6 1.6 0.00 0.00 0.00 35 1007.8
20260503220300 14 208 3.2 3.2 0.00 0.00 0.00 33 1007.8
20260503215756 14 65 0.0 0.0 0.00 0.00 0.00 33 1007.8
20260503215253 14 44 1.6 1.6 0.00 0.00 0.00 34 1008.0
20260503214752 14 158 4.8 4.8 0.00 0.00 0.00 32 1007.9
20260503214248 14 48 0.0 1.6 0.00 0.00 0.00 32 1008.1
20260503213746 14 46 0.0 0.0 0.00 0.00 0.00 34 1007.9
20260503213243 14 56 1.6 1.6 0.00 0.00 0.00 35 1008.1
20260503212740 14 326 3.2 3.2 0.00 0.00 0.00 33 1008.1
20260503212238 14 70 0.0 0.0 0.00 0.00 0.00 31 1008.0
20260503211735 14 108 3.2 3.2 0.00 0.00 0.00 34 1008.1
20260503211231 14 49 1.6 1.6 0.00 0.00 0.00 34 1008.1
20260503210727 14 3 1.6 3.2 0.00 0.00 0.00 31 1008.0
20260503210225 14 11 1.6 3.2 0.00 0.00 0.00 34 1008.0
20260503205719 13 179 4.8 8.0 0.00 0.00 0.00 37 1008.0
20260503205216 13 193 4.8 4.8 0.00 0.00 0.00 34 1008.2
20260503204712 14 233 4.8 4.8 0.00 0.00 0.00 33 1007.9
20260503204211 14 97 3.2 3.2 0.00 0.00 0.00 33 1007.9
20260503203707 15 230 3.2 4.8 0.00 0.00 0.00 32 1007.9
20260503203205 13 99 3.2 3.2 0.00 0.00 0.00 32 1007.9
20260503202702 14 46 1.6 1.6 0.00 0.00 0.00 32 1007.9
20260503202200 14 35 0.0 1.6 0.00 0.00 0.00 33 1007.9
20260503201657 14 337 3.2 3.2 0.00 0.00 0.00 32 1008.1
20260503201155 14 40 3.2 3.2 0.00 0.00 0.00 33 1008.0
20260503200651 13 119 4.8 4.8 0.00 0.00 0.00 34 1008.0
20260503200147 14 236 8.0 9.7 0.00 0.00 0.00 33 1008.3
20260503195644 13 272 4.8 4.8 0.00 0.00 0.00 33 1008.2
20260503195141 13 63 3.2 4.8 0.00 0.00 0.00 35 1008.2
20260503194638 13 42 3.2 3.2 0.00 0.00 0.00 34 1008.2
20260503194133 13 68 1.6 3.2 0.00 0.00 0.00 35 1008.2
20260503193631 13 358 3.2 4.8 0.00 0.00 0.00 34 1008.1
20260503193126 13 41 4.8 8.0 0.00 0.00 0.00 34 1008.3
20260503192622 13 311 3.2 9.7 0.00 0.00 0.00 35 1008.4
20260503192118 13 31 1.6 1.6 0.00 0.00 0.00 34 1008.5
20260503191615 13 80 1.6 1.6 0.00 0.00 0.00 37 1008.5
20260503191112 13 28 1.6 1.6 0.00 0.00 0.00 36 1008.5
20260503190609 13 319 4.8 4.8 0.00 0.00 0.00 35 1008.7
20260503190106 13 21 1.6 1.6 0.00 0.00 0.00 36 1008.5
20260503185603 13 15 3.2 3.2 0.00 0.00 0.00 34 1008.6
20260503185102 13 311 8.0 12.9 0.00 0.00 0.00 37 1008.7
20260503184558 13 2 3.2 3.2 0.00 0.00 0.00 37 1008.8
20260503184055 13 203 4.8 8.0 0.00 0.00 0.00 35 1008.8
20260503183551 13 180 8.0 9.7 0.00 0.00 0.00 38 1008.6
20260503183048 13 37 0.0 1.6 0.00 0.00 0.00 37 1008.8
20260503182547 13 338 3.2 4.8 0.00 0.00 0.00 34 1008.8
20260503182045 13 24 1.6 1.6 0.00 0.00 0.00 35 1008.9
20260503181541 12 13 6.4 8.0 0.00 0.00 0.00 37 1008.7
20260503181037 13 6 4.8 4.8 0.00 0.00 0.00 37 1008.7
20260503180535 12 287 4.8 8.0 0.00 0.00 0.00 40 1008.7
20260503180032 12 272 4.8 9.7 0.00 0.00 0.00 39 1008.9
20260503175530 12 89 1.6 3.2 0.00 0.00 0.00 43 1009.0
20260503175026 12 24 4.8 4.8 0.00 0.00 0.00 40 1008.9